CW0762 Weather Reports


Display with metric or nautical units.
time (UTC)temp
F
wind
direction
speed
MPH
gust
MPH
rain 1hr
in
rain 24hr
in
rain mn
in
humidity
%
barometer
mb
20260507020029 61 279 1.0 5.0 0.00 0.02 0.02 73 1017.5
20260507014529 61 271 1.0 5.0 0.00 0.02 0.02 72 1017.1
20260507013041 62 296 2.0 6.0 0.00 0.02 0.02 72 1016.6
20260507011523 62 257 1.0 5.0 0.00 0.02 0.02 72 1016.3
20260507010031 62 275 0.0 5.0 0.00 0.02 0.02 72 1016.2
20260507004522 62 263 1.0 6.0 0.00 0.02 0.02 71 1016.1
20260507003024 63 271 0.0 4.0 0.00 0.02 0.02 71 1016.1
20260507001521 63 279 1.0 5.0 0.00 0.02 0.02 71 1015.8
20260507000022 63 276 1.0 6.0 0.00 0.02 0.02 71 1015.6
20260506234521 64 274 1.0 5.0 0.00 0.02 0.02 70 1015.4
20260506233020 64 328 1.0 7.0 0.00 0.02 0.02 70 1015.3
20260506231519 65 280 0.0 4.0 0.00 0.02 0.02 70 1015.1
20260506230020 65 265 0.0 5.0 0.00 0.02 0.02 70 1015.0
20260506224519 65 279 0.0 4.0 0.00 0.02 0.02 70 1014.8
20260506223019 65 277 0.0 4.0 0.00 0.02 0.02 70 1014.9
20260506221518 65 263 1.0 5.0 0.00 0.02 0.02 69 1014.7
20260506220017 65 283 1.0 4.0 0.00 0.02 0.02 70 1014.8
20260506214521 64 282 0.0 8.0 0.00 0.02 0.02 72 1014.7
20260506213014 63 273 1.0 4.0 0.00 0.02 0.02 71 1014.8
20260506211511 63 264 0.0 3.0 0.00 0.02 0.02 71 1015.1
20260506210017 63 257 0.0 3.0 0.00 0.02 0.02 71 1015.1
20260506204511 63 272 1.0 6.0 0.00 0.02 0.02 70 1015.0
20260506203010 63 259 0.0 3.0 0.00 0.02 0.02 71 1015.2
20260506201506 62 273 0.0 4.0 0.00 0.02 0.02 73 1015.4
20260506200006 61 264 0.0 3.0 0.00 0.02 0.02 72 1015.9
20260506194505 60 288 0.0 4.0 0.00 0.02 0.02 74 1016.1
20260506193004 60 284 0.0 4.0 0.00 0.02 0.02 74 1016.2
20260506191504 60 273 0.0 3.0 0.00 0.02 0.02 75 1016.3
20260506190008 60 274 0.0 4.0 0.00 0.02 0.02 74 1016.2
20260506184503 60 302 0.0 6.0 0.00 0.02 0.02 75 1015.9
20260506183009 60 275 1.0 8.0 0.00 0.02 0.02 76 1014.9
20260506181505 58 269 1.0 8.0 0.00 0.02 0.02 80 1014.9
20260506180002 57 282 2.0 7.0 0.00 0.02 0.02 81 1015.6
20260506174501 56 263 1.0 4.0 0.00 0.02 0.02 84 1015.4
20260506173002 55 267 2.0 7.0 0.00 0.02 0.02 85 1015.3
20260506171605 55 258 1.0 5.0 0.00 0.02 0.02 86 1015.4
20260506170059 54 255 2.0 8.0 0.00 0.02 0.02 87 1015.8
20260506164613 54 279 0.0 4.0 0.00 0.02 0.02 87 1016.0
20260506163104 54 261 1.0 6.0 0.01 0.02 0.02 87 1016.2
20260506161559 54 279 1.0 7.0 0.02 0.02 0.02 88 1016.1
20260506160108 54 273 0.0 5.0 0.02 0.02 0.02 89 1015.2
20260506154603 54 280 1.0 7.0 0.02 0.02 0.02 89 1015.2
20260506153113 53 268 0.0 5.0 0.01 0.01 0.01 87 1016.0
20260506151553 54 285 0.0 2.0 0.00 0.00 0.00 86 1017.5
20260506150059 54 285 0.0 3.0 0.00 0.00 0.00 85 1016.8
20260506144556 54 282 1.0 5.0 0.00 0.00 0.00 84 1016.0
20260506143050 54 279 1.0 6.0 0.00 0.00 0.00 83 1014.7
20260506141548 54 273 0.0 4.0 0.00 0.00 0.00 83 1016.2
20260506140045 54 273 0.0 5.0 0.00 0.00 0.00 83 1015.6
20260506134542 54 283 0.0 4.0 0.00 0.00 0.00 84 1015.1
20260506133044 53 283 0.0 3.0 0.00 0.00 0.00 84 1014.8
20260506131546 53 261 1.0 6.0 0.00 0.00 0.00 83 1014.6
20260506130038 53 266 1.0 6.0 0.00 0.00 0.00 82 1014.5
20260506124536 53 267 0.0 5.0 0.00 0.00 0.00 81 1014.4
20260506123034 54 275 1.0 7.0 0.00 0.00 0.00 81 1014.3
20260506121531 54 315 0.0 2.0 0.00 0.00 0.00 80 1014.1
20260506120029 54 268 0.0 4.0 0.00 0.00 0.00 78 1013.9
20260506114529 55 285 0.0 3.0 0.00 0.00 0.00 76 1013.6
20260506113036 55 273 0.0 5.0 0.00 0.00 0.00 77 1013.5
20260506111522 55 271 2.0 7.0 0.00 0.00 0.00 76 1013.0
20260506110020 56 277 1.0 5.0 0.00 0.00 0.00 75 1012.9
20260506104517 56 283 2.0 7.0 0.00 0.00 0.00 75 1012.6
20260506103016 56 280 2.0 9.0 0.00 0.00 0.00 75 1012.4
20260506101513 56 280 0.0 5.0 0.00 0.00 0.00 75 1012.1
20260506100012 57 265 0.0 6.0 0.00 0.00 0.00 75 1011.9
20260506094509 57 273 2.0 6.0 0.00 0.00 0.00 74 1011.7
20260506093007 57 263 0.0 4.0 0.00 0.00 0.00 75 1011.5
20260506091506 58 271 0.0 2.0 0.00 0.00 0.00 76 1011.5
20260506090005 58 281 1.0 4.0 0.00 0.00 0.00 76 1011.3
20260506084502 58 294 1.0 4.0 0.00 0.00 0.00 76 1011.2
20260506083002 58 261 1.0 4.0 0.00 0.00 0.00 76 1011.1
20260506081603 58 282 1.0 5.0 0.00 0.00 0.00 76 1011.1
20260506080107 58 275 0.0 4.0 0.00 0.00 0.00 76 1011.0
20260506073055 59 262 0.0 3.0 0.00 0.00 0.00 77 1010.5
20260506071602 59 243 0.0 5.0 0.00 0.00 0.00 77 1010.6
20260506061546 60 276 1.0 4.0 0.00 0.00 0.00 78 1010.6
20260506044538 62 277 1.0 5.0 0.00 0.00 0.00 77 1010.5
20260506043035 63 292 0.0 9.0 0.00 0.00 0.00 77 1010.5
20260506041531 63 227 1.0 7.0 0.00 0.00 0.00 76 1010.4
20260506040029 64 286 0.0 6.0 0.00 0.00 0.00 76 1010.3
20260506034530 65 268 1.0 7.0 0.00 0.00 0.00 76 1009.7
20260506033022 65 266 0.0 4.0 0.00 0.00 0.00 75 1009.5
20260506031520 66 265 0.0 9.0 0.00 0.00 0.00 75 1009.3
20260506030031 68 269 2.0 6.0 0.00 0.00 0.00 74 1009.1
20260506024530 68 284 0.0 6.0 0.00 0.00 0.00 74 1008.9
20260506023013 69 287 1.0 4.0 0.00 0.00 0.00 73 1008.5
20260506021508 69 281 0.0 3.0 0.00 0.00 0.00 72 1007.9